This is the latest recevied weather packets stored in our database for station/object SV9TNF-4. If no packets are shown the sender has not sent any weather packets the latest 10 day(s).
| Time | Temp. | Humidity | Pressure | Rain* | Wind** | Luminosity | Snow |
|---|---|---|---|---|---|---|---|
| 1777789137 | 15° C | 49% | 1016.6 hPa | 0 mm | 12.96 m/s, 337° | - | - |
| 1777788837 | 15° C | 49% | 1016.6 hPa | 0 mm | 12.96 m/s, 337° | - | - |
| 1777788536 | 15° C | 49% | 1016.6 hPa | 0 mm | 12.96 m/s, 337° | - | - |
| 1777788237 | 15° C | 49% | 1016.6 hPa | 0 mm | 12.96 m/s, 337° | - | - |
| 1777787936 | 14.44° C | 50% | 1016.3 hPa | 0 mm | 14.31 m/s, 339° | - | - |
| 1777787636 | 14.44° C | 50% | 1016.3 hPa | 0 mm | 14.31 m/s, 339° | - | - |
| 1777787336 | 14.44° C | 50% | 1016.3 hPa | 0 mm | 14.31 m/s, 339° | - | - |
| 1777787036 | 14.44° C | 50% | 1016.3 hPa | 0 mm | 14.31 m/s, 339° | - | - |
| 1777786736 | 14.44° C | 50% | 1016.3 hPa | 0 mm | 14.31 m/s, 339° | - | - |
| 1777786436 | 14.44° C | 50% | 1016.3 hPa | 0 mm | 14.31 m/s, 339° | - | - |
| 1777786136 | 14.44° C | 50% | 1015.9 hPa | 0 mm | 12.96 m/s, 307° | - | - |
| 1777785835 | 14.44° C | 50% | 1015.9 hPa | 0 mm | 12.96 m/s, 307° | - | - |
| 1777785535 | 14.44° C | 50% | 1015.9 hPa | 0 mm | 12.96 m/s, 307° | - | - |
| 1777785235 | 13.89° C | 51% | 1015.6 hPa | 0 mm | 9.83 m/s, 338° | - | - |
| 1777784935 | 13.89° C | 51% | 1015.6 hPa | 0 mm | 9.83 m/s, 338° | - | - |
| 1777784635 | 13.89° C | 51% | 1015.6 hPa | 0 mm | 9.83 m/s, 338° | - | - |
| 1777784335 | 13.89° C | 51% | 1015.6 hPa | 0 mm | 9.83 m/s, 338° | - | - |
| 1777784035 | 13.89° C | 51% | 1015.6 hPa | 0 mm | 9.83 m/s, 338° | - | - |
| 1777783735 | 13.89° C | 51% | 1015.6 hPa | 0 mm | 9.83 m/s, 338° | - | - |
| 1777777265 | 12.78° C | 54% | 1015.2 hPa | 0 mm | 17.88 m/s, 338° | - | - |
| 1777776965 | 12.78° C | 55% | 1015.2 hPa | 0 mm | 11.18 m/s, 325° | - | - |
| 1777776665 | 12.78° C | 55% | 1015.2 hPa | 0 mm | 11.18 m/s, 325° | - | - |
| 1777776365 | 12.78° C | 55% | 1015.2 hPa | 0 mm | 11.18 m/s, 325° | - | - |
| 1777776065 | 12.78° C | 56% | 1015.2 hPa | 0 mm | 4.92 m/s, 307° | - | - |
| 1777775765 | 12.78° C | 56% | 1015.2 hPa | 0 mm | 4.92 m/s, 307° | - | - |
* Rain latest hour (hover to see other rain measurements)
** Current wind speed in m/s (hover to see current wind gust speed)